Time,TemperatureF,DewpointF,PressureIn,WindDirection,WindDirectionDegrees,WindSpeedMPH,WindSpeedGustMPH,Humidity,HourlyPrecipIn,Conditions,Clouds,dailyrainin,SoftwareType,DateUTC
2013-01-21 00:01:00,33.1,17.4,29.88,WSW,248,0.0,2.2,52,0.00,,---,0.00,VWS V14.01,2013-01-21 08:01:00,
2013-01-21 00:06:00,32.0,17.7,29.88,WNW,292,2.7,4.9,55,0.00,,---,0.00,VWS V14.01,2013-01-21 08:06:00,
2013-01-21 00:11:00,30.4,17.8,29.91,SE,135,2.7,2.7,59,0.00,,---,0.00,VWS V14.01,2013-01-21 08:11:00,
2013-01-21 00:16:00,29.5,19.2,29.91,SW,225,5.4,5.4,65,0.00,,---,0.00,VWS V14.01,2013-01-21 08:16:00,
2013-01-21 00:21:00,28.9,20.1,29.91,SW,225,0.0,5.4,69,0.00,,---,0.00,VWS V14.01,2013-01-21 08:21:00,
2013-01-21 00:26:00,28.6,20.7,29.91,WSW,248,5.8,5.8,72,0.00,,---,0.00,VWS V14.01,2013-01-21 08:26:00,
2013-01-21 00:31:00,28.4,21.5,29.91,WSW,248,4.5,4.5,75,0.00,,---,0.00,VWS V14.01,2013-01-21 08:31:00,
2013-01-21 00:37:00,28.2,22.2,29.91,WNW,292,0.0,0.0,78,0.00,,---,0.00,VWS V14.01,2013-01-21 08:37:00,
2013-01-21 00:42:00,28.0,22.7,29.91,WSW,248,2.2,2.2,80,0.00,,---,0.00,VWS V14.01,2013-01-21 08:42:00,
2013-01-21 00:47:00,28.0,23.3,29.91,SW,225,0.0,0.0,82,0.00,,---,0.00,VWS V14.01,2013-01-21 08:47:00,
2013-01-21 00:52:00,28.0,23.8,29.88,South,180,2.2,2.2,84,0.00,,---,0.00,VWS V14.01,2013-01-21 08:52:00,
2013-01-21 00:57:00,28.4,24.8,29.88,SW,225,0.0,0.0,86,0.00,,---,0.00,VWS V14.01,2013-01-21 08:57:00,
2013-01-21 01:02:00,29.5,25.8,29.88,SW,225,0.0,0.0,86,0.00,,---,0.00,VWS V14.01,2013-01-21 09:02:00,
2013-01-21 01:07:00,29.8,25.9,29.88,SW,225,0.0,0.0,85,0.00,,---,0.00,VWS V14.01,2013-01-21 09:07:00,
2013-01-21 01:12:00,30.2,25.7,29.88,SW,225,3.1,3.1,83,0.00,,---,0.00,VWS V14.01,2013-01-21 09:12:00,
2013-01-21 01:17:00,30.0,25.2,29.88,SW,225,3.6,3.6,82,0.00,,---,0.00,VWS V14.01,2013-01-21 09:17:00,
2013-01-21 01:22:00,29.5,24.4,29.91,WSW,248,6.3,6.3,81,0.00,,---,0.00,VWS V14.01,2013-01-21 09:22:00,
2013-01-21 01:28:00,28.9,23.9,29.91,WSW,248,0.0,3.1,81,0.00,,---,0.00,VWS V14.01,2013-01-21 09:28:00,
2013-01-21 01:33:00,28.4,23.6,29.91,WSW,248,0.0,4.0,82,0.00,,---,0.00,VWS V14.01,2013-01-21 09:33:00,
2013-01-21 01:38:00,27.9,23.4,29.91,SSW,202,3.1,3.1,83,0.00,,---,0.00,VWS V14.01,2013-01-21 09:38:00,
2013-01-21 01:43:00,27.9,24.0,29.91,SW,225,0.0,0.0,85,0.00,,---,0.00,VWS V14.01,2013-01-21 09:43:00,
2013-01-21 01:48:00,27.9,24.2,29.91,SW,225,0.0,0.0,86,0.00,,---,0.00,VWS V14.01,2013-01-21 09:48:00,
2013-01-21 01:53:00,27.7,24.3,29.91,SW,225,0.0,0.0,87,0.00,,---,0.00,VWS V14.01,2013-01-21 09:53:00,
2013-01-21 01:58:00,27.7,24.3,29.91,SW,225,0.0,0.0,87,0.00,,---,0.00,VWS V14.01,2013-01-21 09:58:00,
2013-01-21 02:03:00,27.9,24.8,29.91,SW,225,0.0,0.0,88,0.00,,---,0.00,VWS V14.01,2013-01-21 10:03:00,
2013-01-21 02:08:00,27.9,25.0,29.91,SW,225,0.0,2.7,89,0.00,,---,0.00,VWS V14.01,2013-01-21 10:08:00,
2013-01-21 02:13:00,28.0,25.5,29.91,SW,225,0.0,3.1,90,0.00,,---,0.00,VWS V14.01,2013-01-21 10:13:00,
2013-01-21 02:18:00,28.0,25.8,29.91,WSW,248,0.0,3.6,91,0.00,,---,0.00,VWS V14.01,2013-01-21 10:18:00,
2013-01-21 02:23:00,28.0,25.8,29.91,WSW,248,0.0,2.7,91,0.00,,---,0.00,VWS V14.01,2013-01-21 10:23:00,
2013-01-21 02:28:00,28.2,26.2,29.91,WSW,248,0.0,0.0,92,0.00,,---,0.00,VWS V14.01,2013-01-21 10:28:00,
2013-01-21 02:34:00,28.2,26.5,29.91,WSW,248,0.0,0.0,93,0.00,,---,0.00,VWS V14.01,2013-01-21 10:34:00,
2013-01-21 02:39:00,28.2,26.7,29.91,WSW,248,0.0,0.0,94,0.00,,---,0.00,VWS V14.01,2013-01-21 10:39:00,
2013-01-21 02:44:00,28.4,26.9,29.91,WSW,248,0.0,0.0,94,0.00,,---,0.00,VWS V14.01,2013-01-21 10:44:00,
2013-01-21 02:49:00,28.4,27.1,29.91,WSW,248,0.0,0.0,95,0.00,,---,0.00,VWS V14.01,2013-01-21 10:49:00,
2013-01-21 02:54:00,28.4,27.1,29.91,SE,135,0.0,0.0,95,0.00,,---,0.00,VWS V14.01,2013-01-21 10:54:00,
2013-01-21 02:59:00,28.4,27.4,29.91,SSE,158,0.0,0.0,96,0.00,,---,0.00,VWS V14.01,2013-01-21 10:59:00,
2013-01-21 03:04:00,28.6,27.3,29.91,SSE,158,0.0,0.0,95,0.00,,---,0.00,VWS V14.01,2013-01-21 11:04:00,
2013-01-21 03:09:00,28.6,27.6,29.88,SW,225,0.0,0.0,96,0.00,,---,0.00,VWS V14.01,2013-01-21 11:09:00,
2013-01-21 03:14:00,28.6,27.6,29.88,SW,225,2.7,2.7,96,0.00,,---,0.00,VWS V14.01,2013-01-21 11:14:00,
2013-01-21 03:20:00,28.6,27.6,29.88,SW,225,0.0,0.0,96,0.00,,---,0.00,VWS V14.01,2013-01-21 11:20:00,
2013-01-21 03:25:00,28.6,27.6,29.88,SW,225,0.0,2.2,96,0.00,,---,0.00,VWS V14.01,2013-01-21 11:25:00,
2013-01-21 03:30:00,28.6,27.6,29.88,SW,225,0.0,3.1,96,0.00,,---,0.00,VWS V14.01,2013-01-21 11:30:00,
2013-01-21 03:35:00,28.8,27.8,29.88,SW,225,0.0,0.0,96,0.00,,---,0.00,VWS V14.01,2013-01-21 11:35:00,
2013-01-21 03:40:00,28.8,27.8,29.88,SSW,202,0.0,0.0,96,0.00,,---,0.00,VWS V14.01,2013-01-21 11:40:00,
2013-01-21 03:45:00,28.6,27.6,29.88,SSW,202,0.0,0.0,96,0.00,,---,0.00,VWS V14.01,2013-01-21 11:45:00,
2013-01-21 03:50:00,28.6,27.8,29.88,SSW,202,0.0,0.0,97,0.00,,---,0.00,VWS V14.01,2013-01-21 11:50:00,
2013-01-21 03:55:00,28.8,28.0,29.88,South,180,0.0,0.0,97,0.00,,---,0.00,VWS V14.01,2013-01-21 11:55:00,
2013-01-21 04:00:00,28.9,28.2,29.88,South,180,0.0,0.0,97,0.00,,---,0.00,VWS V14.01,2013-01-21 12:00:00,
2013-01-21 04:05:00,29.1,28.4,29.88,South,180,0.0,0.0,97,0.00,,---,0.00,VWS V14.01,2013-01-21 12:05:00,
2013-01-21 04:10:00,29.1,28.4,29.88,SSW,202,0.0,0.0,97,0.00,,---,0.00,VWS V14.01,2013-01-21 12:10:00,
2013-01-21 04:15:00,29.1,28.4,29.88,SSW,202,0.0,0.0,97,0.00,,---,0.00,VWS V14.01,2013-01-21 12:15:00,
2013-01-21 04:20:00,29.1,28.4,29.88,SSW,202,0.0,0.0,97,0.00,,---,0.00,VWS V14.01,2013-01-21 12:20:00,
2013-01-21 04:25:00,29.1,28.4,29.88,SSW,202,0.0,0.0,97,0.00,,---,0.00,VWS V14.01,2013-01-21 12:25:00,
2013-01-21 04:30:00,29.1,28.4,29.88,SSW,202,0.0,0.0,97,0.00,,---,0.00,VWS V14.01,2013-01-21 12:30:00,
2013-01-21 04:35:00,28.9,28.2,29.88,SSW,202,0.0,0.0,97,0.00,,---,0.00,VWS V14.01,2013-01-21 12:35:00,
2013-01-21 04:40:00,28.9,28.2,29.88,SSW,202,0.0,0.0,97,0.00,,---,0.00,VWS V14.01,2013-01-21 12:40:00,
2013-01-21 04:45:00,28.9,28.2,29.88,SSW,202,0.0,0.0,97,0.00,,---,0.00,VWS V14.01,2013-01-21 12:45:00,
2013-01-21 04:51:00,28.8,28.0,29.88,SW,225,0.0,2.7,97,0.00,,---,0.00,VWS V14.01,2013-01-21 12:51:00,
2013-01-21 04:56:00,28.8,28.0,29.88,SW,225,0.0,0.0,97,0.00,,---,0.00,VWS V14.01,2013-01-21 12:56:00,
2013-01-21 05:01:00,28.6,27.8,29.88,SW,225,0.0,0.0,97,0.00,,---,0.00,VWS V14.01,2013-01-21 13:01:00,
2013-01-21 05:06:00,28.6,27.8,29.88,SW,225,0.0,0.0,97,0.00,,---,0.00,VWS V14.01,2013-01-21 13:06:00,
2013-01-21 05:11:00,28.6,27.8,29.85,SW,225,0.0,0.0,97,0.00,,---,0.00,VWS V14.01,2013-01-21 13:11:00,
2013-01-21 05:16:00,28.6,27.8,29.85,SW,225,2.2,3.6,97,0.00,,---,0.00,VWS V14.01,2013-01-21 13:16:00,
2013-01-21 05:21:00,28.6,27.8,29.85,WSW,248,0.0,0.0,97,0.00,,---,0.00,VWS V14.01,2013-01-21 13:21:00,
2013-01-21 05:26:00,28.6,27.8,29.88,NE,45,0.0,3.6,97,0.00,,---,0.00,VWS V14.01,2013-01-21 13:26:00,
2013-01-21 05:31:00,28.6,27.8,29.88,WSW,248,3.1,3.1,97,0.00,,---,0.00,VWS V14.01,2013-01-21 13:31:00,
2013-01-21 05:36:00,28.6,27.8,29.88,WSW,248,4.0,4.0,97,0.00,,---,0.00,VWS V14.01,2013-01-21 13:36:00,
2013-01-21 05:41:00,28.9,28.2,29.85,South,180,0.0,2.2,97,0.00,,---,0.00,VWS V14.01,2013-01-21 13:41:00,
2013-01-21 05:46:00,28.8,28.0,29.85,South,180,0.0,0.0,97,0.00,,---,0.00,VWS V14.01,2013-01-21 13:46:00,
2013-01-21 05:51:00,28.8,28.0,29.85,South,180,0.0,0.0,97,0.00,,---,0.00,VWS V14.01,2013-01-21 13:51:00,
2013-01-21 05:57:00,28.6,27.8,29.85,SW,225,2.2,3.6,97,0.00,,---,0.00,VWS V14.01,2013-01-21 13:57:00,
2013-01-21 06:02:00,28.6,27.8,29.85,SW,225,0.0,0.0,97,0.00,,---,0.00,VWS V14.01,2013-01-21 14:02:00,
2013-01-21 06:07:00,28.6,27.8,29.85,SW,225,3.1,3.1,97,0.00,,---,0.00,VWS V14.01,2013-01-21 14:07:00,
2013-01-21 06:12:00,28.6,27.8,29.85,West,270,2.7,2.7,97,0.00,,---,0.00,VWS V14.01,2013-01-21 14:12:00,
2013-01-21 06:17:00,28.6,27.8,29.85,SW,225,0.0,0.0,97,0.00,,---,0.00,VWS V14.01,2013-01-21 14:17:00,
2013-01-21 06:22:00,28.4,27.7,29.85,WSW,248,0.0,0.0,97,0.00,,---,0.00,VWS V14.01,2013-01-21 14:22:00,
2013-01-21 06:27:00,28.8,28.0,29.85,West,270,3.6,3.6,97,0.00,,---,0.00,VWS V14.01,2013-01-21 14:27:00,
2013-01-21 06:32:00,29.5,28.7,29.85,South,180,4.0,4.0,97,0.00,,---,0.00,VWS V14.01,2013-01-21 14:32:00,
2013-01-21 06:37:00,30.6,29.8,29.82,North,0,4.0,7.2,97,0.00,,---,0.00,VWS V14.01,2013-01-21 14:37:00,
2013-01-21 06:42:00,31.1,30.4,29.82,South,180,3.6,4.0,97,0.00,,---,0.00,VWS V14.01,2013-01-21 14:42:00,
2013-01-21 06:48:00,31.6,30.9,29.82,NE,45,4.0,5.8,97,0.00,,---,0.00,VWS V14.01,2013-01-21 14:48:00,
2013-01-21 06:53:00,31.6,30.6,29.82,NW,315,0.0,0.0,96,0.00,,---,0.00,VWS V14.01,2013-01-21 14:53:00,
2013-01-21 06:58:00,31.5,30.5,29.82,East,90,2.2,6.3,96,0.00,,---,0.00,VWS V14.01,2013-01-21 14:58:00,
2013-01-21 07:03:00,31.3,30.3,29.82,East,90,2.7,2.7,96,0.00,,---,0.00,VWS V14.01,2013-01-21 15:03:00,
2013-01-21 07:08:00,31.1,29.8,29.82,North,0,0.0,3.1,95,0.00,,---,0.00,VWS V14.01,2013-01-21 15:08:00,
2013-01-21 07:13:00,31.1,29.6,29.82,SE,135,4.0,4.0,94,0.00,,---,0.00,VWS V14.01,2013-01-21 15:13:00,
2013-01-21 07:18:00,31.1,29.3,29.82,South,180,0.0,0.0,93,0.00,,---,0.00,VWS V14.01,2013-01-21 15:18:00,
2013-01-21 07:23:00,30.9,28.6,29.82,North,0,4.9,4.9,91,0.00,,---,0.00,VWS V14.01,2013-01-21 15:23:00,
2013-01-21 07:28:00,30.9,27.8,29.82,ENE,68,0.0,0.0,88,0.00,,---,0.00,VWS V14.01,2013-01-21 15:28:00,
2013-01-21 07:33:00,30.9,26.7,29.82,East,90,4.9,4.9,84,0.00,,---,0.00,VWS V14.01,2013-01-21 15:33:00,
2013-01-21 07:38:00,31.1,25.4,29.82,SE,135,3.6,9.6,79,0.00,,---,0.00,VWS V14.01,2013-01-21 15:38:00,
2013-01-21 07:43:00,31.1,23.8,29.82,NNE,22,3.6,3.6,74,0.00,,---,0.00,VWS V14.01,2013-01-21 15:43:00,
2013-01-21 07:48:00,31.3,23.0,29.82,East,90,0.0,5.4,71,0.00,,---,0.00,VWS V14.01,2013-01-21 15:48:00,
2013-01-21 07:53:00,31.1,21.4,29.82,ESE,112,10.5,10.5,67,0.00,,---,0.00,VWS V14.01,2013-01-21 15:53:00,
2013-01-21 07:58:00,31.3,20.9,29.82,East,90,0.0,0.0,65,0.00,,---,0.00,VWS V14.01,2013-01-21 15:58:00,
2013-01-21 08:03:00,31.3,20.5,29.82,NE,45,4.0,4.0,64,0.00,,---,0.00,VWS V14.01,2013-01-21 16:03:00,
2013-01-21 08:08:00,31.1,20.0,29.82,East,90,3.1,3.6,63,0.00,,---,0.00,VWS V14.01,2013-01-21 16:08:00,
2013-01-21 08:13:00,31.1,19.6,29.82,East,90,2.7,2.7,62,0.00,,---,0.00,VWS V14.01,2013-01-21 16:13:00,
2013-01-21 08:18:00,31.1,19.6,29.82,ENE,68,2.2,2.7,62,0.00,,---,0.00,VWS V14.01,2013-01-21 16:18:00,
2013-01-21 08:23:00,31.3,19.8,29.82,SE,135,0.0,0.0,62,0.00,,---,0.00,VWS V14.01,2013-01-21 16:23:00,
2013-01-21 08:28:00,31.3,19.4,29.82,ESE,112,0.0,3.1,61,0.00,,---,0.00,VWS V14.01,2013-01-21 16:28:00,
2013-01-21 08:33:00,31.3,19.4,29.82,SSE,158,0.0,4.9,61,0.00,,---,0.00,VWS V14.01,2013-01-21 16:33:00,
2013-01-21 08:38:00,31.3,19.4,29.82,NW,315,0.0,2.2,61,0.00,,---,0.00,VWS V14.01,2013-01-21 16:38:00,
2013-01-21 08:44:00,31.5,19.6,29.82,NW,315,0.0,0.0,61,0.00,,---,0.00,VWS V14.01,2013-01-21 16:44:00,
2013-01-21 08:49:00,31.6,19.8,29.82,North,0,0.0,5.4,61,0.00,,---,0.00,VWS V14.01,2013-01-21 16:49:00,
2013-01-21 08:54:00,32.2,19.9,29.85,East,90,4.0,4.9,60,0.00,,---,0.00,VWS V14.01,2013-01-21 16:54:00,
2013-01-21 08:59:00,32.5,19.4,29.85,NNE,22,0.0,0.0,58,0.00,,---,0.00,VWS V14.01,2013-01-21 16:59:00,
2013-01-21 09:04:00,32.7,19.2,29.85,NE,45,2.7,3.6,57,0.00,,---,0.00,VWS V14.01,2013-01-21 17:04:00,
2013-01-21 09:09:00,33.1,19.1,29.85,West,270,3.1,3.1,56,0.00,,---,0.00,VWS V14.01,2013-01-21 17:09:00,
2013-01-21 09:14:00,34.2,19.7,29.85,WSW,248,0.0,2.2,55,0.00,,---,0.00,VWS V14.01,2013-01-21 17:14:00,
2013-01-21 09:19:00,35.1,19.7,29.85,ESE,112,0.0,0.0,53,0.00,,---,0.00,VWS V14.01,2013-01-21 17:19:00,
2013-01-21 09:24:00,35.4,18.6,29.85,NW,315,3.1,4.9,50,0.00,,---,0.00,VWS V14.01,2013-01-21 17:24:00,
2013-01-21 09:29:00,35.8,18.5,29.85,North,0,2.7,4.0,49,0.00,,---,0.00,VWS V14.01,2013-01-21 17:29:00,
2013-01-21 09:34:00,36.1,17.9,29.85,North,0,2.7,3.1,47,0.00,,---,0.00,VWS V14.01,2013-01-21 17:34:00,
2013-01-21 09:39:00,36.7,17.9,29.85,East,90,3.6,3.6,46,0.00,,---,0.00,VWS V14.01,2013-01-21 17:39:00,
2013-01-21 09:44:00,37.4,17.5,29.85,SE,135,4.9,5.8,44,0.00,,---,0.00,VWS V14.01,2013-01-21 17:44:00,
2013-01-21 09:49:00,37.6,17.1,29.85,NNW,338,0.0,3.1,43,0.00,,---,0.00,VWS V14.01,2013-01-21 17:49:00,
2013-01-21 09:54:00,38.8,17.7,29.85,SSE,158,3.1,3.1,42,0.00,,---,0.00,VWS V14.01,2013-01-21 17:54:00,
2013-01-21 09:59:00,37.9,16.4,29.85,ESE,112,8.1,8.1,41,0.00,,---,0.00,VWS V14.01,2013-01-21 17:59:00,
2013-01-21 10:04:00,37.9,16.4,29.85,East,90,5.4,8.1,41,0.00,,---,0.00,VWS V14.01,2013-01-21 18:04:00,
2013-01-21 10:09:00,37.9,16.4,29.85,NE,45,4.0,7.2,41,0.00,,---,0.00,VWS V14.01,2013-01-21 18:09:00,
2013-01-21 10:15:00,37.9,16.4,29.85,NE,45,2.2,5.8,41,0.00,,---,0.00,VWS V14.01,2013-01-21 18:15:00,
2013-01-21 10:20:00,39.4,17.1,29.85,South,180,4.0,4.0,40,0.00,,---,0.00,VWS V14.01,2013-01-21 18:20:00,
2013-01-21 10:25:00,39.9,17.0,29.85,ESE,112,0.0,0.0,39,0.00,,---,0.00,VWS V14.01,2013-01-21 18:25:00,
2013-01-21 10:30:00,41.4,17.7,29.85,SW,225,0.0,5.4,38,0.00,,---,0.00,VWS V14.01,2013-01-21 18:30:00,
2013-01-21 10:35:00,41.0,17.4,29.85,SE,135,0.0,2.2,38,0.00,,---,0.00,VWS V14.01,2013-01-21 18:35:00,
2013-01-21 10:40:00,42.1,18.3,29.88,SE,135,3.1,3.1,38,0.00,,---,0.00,VWS V14.01,2013-01-21 18:40:00,
2013-01-21 10:45:00,42.4,18.0,29.88,South,180,2.7,3.1,37,0.00,,---,0.00,VWS V14.01,2013-01-21 18:45:00,
2013-01-21 10:50:00,43.0,18.5,29.88,South,180,3.6,3.6,37,0.00,,---,0.00,VWS V14.01,2013-01-21 18:50:00,
2013-01-21 10:55:00,43.2,19.3,29.85,East,90,0.0,2.2,38,0.00,,---,0.00,VWS V14.01,2013-01-21 18:55:00,
2013-01-21 11:00:00,42.4,18.6,29.85,SE,135,4.0,7.2,38,0.00,,---,0.00,VWS V14.01,2013-01-21 19:00:00,
2013-01-21 11:05:00,41.9,18.2,29.85,SSW,202,5.4,5.8,38,0.00,,---,0.00,VWS V14.01,2013-01-21 19:05:00,
2013-01-21 11:10:00,42.4,16.1,29.85,SE,135,3.1,3.6,34,0.00,,---,0.00,VWS V14.01,2013-01-21 19:10:00,
2013-01-21 11:15:00,42.6,14.8,29.85,NW,315,3.1,6.3,32,0.00,,---,0.00,VWS V14.01,2013-01-21 19:15:00,
2013-01-21 11:21:00,43.5,15.6,29.85,South,180,3.6,3.6,32,0.00,,---,0.00,VWS V14.01,2013-01-21 19:21:00,
2013-01-21 11:26:00,42.4,14.0,29.85,East,90,7.2,7.2,31,0.00,,---,0.00,VWS V14.01,2013-01-21 19:26:00,
2013-01-21 11:31:00,42.1,13.6,29.85,SSE,158,2.2,2.2,31,0.00,,---,0.00,VWS V14.01,2013-01-21 19:31:00,
2013-01-21 11:36:00,42.3,13.8,29.85,SE,135,2.7,2.7,31,0.00,,---,0.00,VWS V14.01,2013-01-21 19:36:00,
2013-01-21 11:41:00,42.8,13.5,29.85,SE,135,7.2,7.2,30,0.00,,---,0.00,VWS V14.01,2013-01-21 19:41:00,
2013-01-21 11:46:00,43.5,14.9,29.85,SSE,158,4.0,4.0,31,0.00,,---,0.00,VWS V14.01,2013-01-21 19:46:00,
2013-01-21 11:51:00,44.2,14.8,29.85,West,270,4.0,4.0,30,0.00,,---,0.00,VWS V14.01,2013-01-21 19:51:00,
2013-01-21 11:56:00,44.6,14.3,29.82,SE,135,3.1,3.1,29,0.00,,---,0.00,VWS V14.01,2013-01-21 19:56:00,
2013-01-21 12:01:00,44.8,14.5,29.82,NW,315,2.7,3.1,29,0.00,,---,0.00,VWS V14.01,2013-01-21 20:01:00,
2013-01-21 12:06:00,45.9,15.4,29.82,WSW,248,0.0,2.7,29,0.00,,---,0.00,VWS V14.01,2013-01-21 20:06:00,
2013-01-21 12:11:00,46.6,15.2,29.82,NW,315,0.0,0.0,28,0.00,,---,0.00,VWS V14.01,2013-01-21 20:11:00,
2013-01-21 12:16:00,45.1,14.0,29.82,ESE,112,3.1,3.1,28,0.00,,---,0.00,VWS V14.01,2013-01-21 20:16:00,
2013-01-21 12:21:00,45.0,13.8,29.82,WNW,292,3.1,3.1,28,0.00,,---,0.00,VWS V14.01,2013-01-21 20:21:00,
2013-01-21 12:26:00,44.6,13.5,29.82,SE,135,4.0,4.0,28,0.00,,---,0.00,VWS V14.01,2013-01-21 20:26:00,
2013-01-21 12:31:00,45.3,14.1,29.82,NW,315,2.7,4.9,28,0.00,,---,0.00,VWS V14.01,2013-01-21 20:31:00,
2013-01-21 12:37:00,45.1,14.0,29.82,NE,45,6.3,7.6,28,0.00,,---,0.00,VWS V14.01,2013-01-21 20:37:00,
2013-01-21 12:42:00,45.9,14.6,29.82,South,180,0.0,0.0,28,0.00,,---,0.00,VWS V14.01,2013-01-21 20:42:00,
2013-01-21 12:47:00,45.7,14.5,29.82,ESE,112,3.1,3.1,28,0.00,,---,0.00,VWS V14.01,2013-01-21 20:47:00,
2013-01-21 12:52:00,46.6,14.4,29.82,WSW,248,3.1,4.0,27,0.00,,---,0.00,VWS V14.01,2013-01-21 20:52:00,
2013-01-21 12:57:00,46.0,14.8,29.82,SSE,158,4.0,7.6,28,0.00,,---,0.00,VWS V14.01,2013-01-21 20:57:00,
2013-01-21 13:02:00,46.9,14.7,29.82,South,180,0.0,0.0,27,0.00,,---,0.00,VWS V14.01,2013-01-21 21:02:00,
2013-01-21 13:07:00,46.4,14.2,29.82,NNW,338,3.6,3.6,27,0.00,,---,0.00,VWS V14.01,2013-01-21 21:07:00,
2013-01-21 13:12:00,46.6,14.4,29.82,SE,135,7.6,7.6,27,0.00,,---,0.00,VWS V14.01,2013-01-21 21:12:00,
2013-01-21 13:17:00,46.2,14.1,29.82,NNW,338,4.0,4.5,27,0.00,,---,0.00,VWS V14.01,2013-01-21 21:17:00,
2013-01-21 13:22:00,46.9,14.7,29.79,South,180,2.7,2.7,27,0.00,,---,0.00,VWS V14.01,2013-01-21 21:22:00,
2013-01-21 13:27:00,47.1,14.9,29.79,SE,135,0.0,4.9,27,0.00,,---,0.00,VWS V14.01,2013-01-21 21:27:00,
2013-01-21 13:33:00,48.4,15.1,29.79,SSW,202,2.7,2.7,26,0.00,,---,0.00,VWS V14.01,2013-01-21 21:33:00,
2013-01-21 13:38:00,48.2,14.9,29.79,SE,135,0.0,0.0,26,0.00,,---,0.00,VWS V14.01,2013-01-21 21:38:00,
2013-01-21 13:43:00,49.1,13.9,29.79,South,180,0.0,2.7,24,0.00,,---,0.00,VWS V14.01,2013-01-21 21:43:00,
2013-01-21 13:48:00,48.9,13.7,29.79,South,180,0.0,2.7,24,0.00,,---,0.00,VWS V14.01,2013-01-21 21:48:00,
2013-01-21 13:53:00,50.0,14.6,29.79,SSE,158,0.0,0.0,24,0.00,,---,0.00,VWS V14.01,2013-01-21 21:53:00,
2013-01-21 13:58:00,51.3,15.7,29.79,SSE,158,0.0,0.0,24,0.00,,---,0.00,VWS V14.01,2013-01-21 21:58:00,
2013-01-21 14:03:00,50.9,12.4,29.79,NE,45,5.4,5.4,21,0.00,,---,0.00,VWS V14.01,2013-01-21 22:03:00,
2013-01-21 14:08:00,49.6,14.3,29.79,SE,135,3.1,3.1,24,0.00,,---,0.00,VWS V14.01,2013-01-21 22:08:00,
2013-01-21 14:13:00,48.7,13.6,29.79,NE,45,2.7,2.7,24,0.00,,---,0.00,VWS V14.01,2013-01-21 22:13:00,
2013-01-21 14:18:00,48.0,13.0,29.79,SE,135,0.0,3.1,24,0.00,,---,0.00,VWS V14.01,2013-01-21 22:18:00,
2013-01-21 14:23:00,48.6,13.4,29.79,SE,135,0.0,4.0,24,0.00,,---,0.00,VWS V14.01,2013-01-21 22:23:00,
2013-01-21 14:28:00,48.9,13.7,29.79,SE,135,0.0,0.0,24,0.00,,---,0.00,VWS V14.01,2013-01-21 22:28:00,
2013-01-21 14:34:00,49.3,14.0,29.79,ESE,112,0.0,0.0,24,0.00,,---,0.00,VWS V14.01,2013-01-21 22:34:00,
2013-01-21 14:39:00,50.7,17.1,29.79,East,90,0.0,0.0,26,0.00,,---,0.00,VWS V14.01,2013-01-21 22:39:00,
2013-01-21 14:44:00,52.0,18.2,29.79,SW,225,0.0,0.0,26,0.00,,---,0.00,VWS V14.01,2013-01-21 22:44:00,
2013-01-21 14:49:00,51.4,17.7,29.79,SSW,202,0.0,0.0,26,0.00,,---,0.00,VWS V14.01,2013-01-21 22:49:00,
2013-01-21 14:54:00,50.5,17.0,29.79,South,180,0.0,0.0,26,0.00,,---,0.00,VWS V14.01,2013-01-21 22:54:00,
2013-01-21 14:59:00,51.1,17.4,29.79,South,180,0.0,0.0,26,0.00,,---,0.00,VWS V14.01,2013-01-21 22:59:00,
2013-01-21 15:04:00,49.6,17.0,29.79,SSW,202,3.6,4.9,27,0.00,,---,0.00,VWS V14.01,2013-01-21 23:04:00,
2013-01-21 15:09:00,48.4,16.0,29.79,ESE,112,0.0,2.7,27,0.00,,---,0.00,VWS V14.01,2013-01-21 23:09:00,
2013-01-21 15:14:00,47.5,15.2,29.79,ESE,112,3.1,8.1,27,0.00,,---,0.00,VWS V14.01,2013-01-21 23:14:00,
2013-01-21 15:19:00,46.6,14.4,29.79,ESE,112,3.6,3.6,27,0.00,,---,0.00,VWS V14.01,2013-01-21 23:19:00,
2013-01-21 15:24:00,46.0,13.9,29.79,SE,135,0.0,3.6,27,0.00,,---,0.00,VWS V14.01,2013-01-21 23:24:00,
2013-01-21 15:29:00,45.9,13.8,29.79,ESE,112,0.0,5.8,27,0.00,,---,0.00,VWS V14.01,2013-01-21 23:29:00,
2013-01-21 15:34:00,46.0,13.9,29.79,SE,135,3.1,3.1,27,0.00,,---,0.00,VWS V14.01,2013-01-21 23:34:00,
2013-01-21 15:39:00,45.5,13.5,29.79,NE,45,3.1,4.9,27,0.00,,---,0.00,VWS V14.01,2013-01-21 23:39:00,
2013-01-21 15:45:00,44.8,12.9,29.79,SE,135,0.0,0.0,27,0.00,,---,0.00,VWS V14.01,2013-01-21 23:45:00,
2013-01-21 15:50:00,44.2,13.2,29.79,SE,135,2.7,4.9,28,0.00,,---,0.00,VWS V14.01,2013-01-21 23:50:00,
2013-01-21 15:55:00,44.1,13.1,29.79,South,180,3.1,3.1,28,0.00,,---,0.00,VWS V14.01,2013-01-21 23:55:00,
2013-01-21 16:00:00,44.6,13.5,29.79,South,180,3.1,3.1,28,0.00,,---,0.00,VWS V14.01,2013-01-22 00:00:00,
2013-01-21 16:05:00,45.9,16.2,29.79,South,180,3.1,3.1,30,0.00,,---,0.00,VWS V14.01,2013-01-22 00:05:00,
2013-01-21 16:10:00,46.2,18.0,29.79,South,180,3.1,3.1,32,0.00,,---,0.00,VWS V14.01,2013-01-22 00:10:00,
2013-01-21 16:15:00,46.6,18.3,29.79,SE,135,2.7,2.7,32,0.00,,---,0.00,VWS V14.01,2013-01-22 00:15:00,
2013-01-21 16:20:00,46.4,17.4,29.79,SE,135,2.7,2.7,31,0.00,,---,0.00,VWS V14.01,2013-01-22 00:20:00,
2013-01-21 16:25:00,44.4,16.4,29.79,SE,135,2.7,2.7,32,0.00,,---,0.00,VWS V14.01,2013-01-22 00:25:00,
2013-01-21 16:30:00,43.5,14.9,29.79,SE,135,0.0,0.0,31,0.00,,---,0.00,VWS V14.01,2013-01-22 00:30:00,
2013-01-21 16:35:00,42.8,13.5,29.79,East,90,0.0,0.0,30,0.00,,---,0.00,VWS V14.01,2013-01-22 00:35:00,
2013-01-21 16:40:00,41.7,13.3,29.79,South,180,0.0,0.0,31,0.00,,---,0.00,VWS V14.01,2013-01-22 00:40:00,
2013-01-21 16:45:00,41.0,12.7,29.79,East,90,2.7,5.4,31,0.00,,---,0.00,VWS V14.01,2013-01-22 00:45:00,
2013-01-21 16:50:00,39.9,12.5,29.79,SE,135,3.6,3.6,32,0.00,,---,0.00,VWS V14.01,2013-01-22 00:50:00,
2013-01-21 16:55:00,39.2,13.2,29.79,SSE,158,0.0,3.1,34,0.00,,---,0.00,VWS V14.01,2013-01-22 00:55:00,
2013-01-21 17:00:00,38.8,14.2,29.79,ESE,112,0.0,0.0,36,0.00,,---,0.00,VWS V14.01,2013-01-22 01:00:00,
2013-01-21 17:05:00,38.1,14.2,29.79,SSE,158,2.7,4.0,37,0.00,,---,0.00,VWS V14.01,2013-01-22 01:05:00,
2013-01-21 17:10:00,37.8,15.0,29.79,SE,135,2.7,6.3,39,0.00,,---,0.00,VWS V14.01,2013-01-22 01:10:00,
2013-01-21 17:15:00,37.4,14.7,29.79,ESE,112,2.7,3.1,39,0.00,,---,0.00,VWS V14.01,2013-01-22 01:15:00,
2013-01-21 17:20:00,37.0,15.0,29.79,SE,135,0.0,4.0,40,0.00,,---,0.00,VWS V14.01,2013-01-22 01:20:00,
2013-01-21 17:25:00,36.9,14.8,29.79,SW,225,2.2,3.1,40,0.00,,---,0.00,VWS V14.01,2013-01-22 01:25:00,
2013-01-21 17:31:00,36.5,15.1,29.79,SE,135,5.8,5.8,41,0.00,,---,0.00,VWS V14.01,2013-01-22 01:31:00,
2013-01-21 17:36:00,36.3,14.9,29.79,West,270,0.0,0.0,41,0.00,,---,0.00,VWS V14.01,2013-01-22 01:36:00,
2013-01-21 17:41:00,36.1,14.7,29.79,SE,135,5.8,5.8,41,0.00,,---,0.00,VWS V14.01,2013-01-22 01:41:00,
2013-01-21 17:46:00,36.1,14.7,29.79,SSE,158,0.0,3.1,41,0.00,,---,0.00,VWS V14.01,2013-01-22 01:46:00,
2013-01-21 17:51:00,35.8,14.4,29.79,SSW,202,4.0,4.0,41,0.00,,---,0.00,VWS V14.01,2013-01-22 01:51:00,
2013-01-21 17:56:00,35.8,14.9,29.79,SW,225,4.9,4.9,42,0.00,,---,0.00,VWS V14.01,2013-01-22 01:56:00,
2013-01-21 18:01:00,35.6,14.8,29.79,WSW,248,0.0,0.0,42,0.00,,---,0.00,VWS V14.01,2013-01-22 02:01:00,
2013-01-21 18:06:00,35.4,15.2,29.79,WSW,248,0.0,0.0,43,0.00,,---,0.00,VWS V14.01,2013-01-22 02:06:00,
2013-01-21 18:11:00,35.1,14.8,29.79,WSW,248,0.0,2.7,43,0.00,,---,0.00,VWS V14.01,2013-01-22 02:11:00,
2013-01-21 18:16:00,35.1,15.4,29.79,WSW,248,0.0,0.0,44,0.00,,---,0.00,VWS V14.01,2013-01-22 02:16:00,
2013-01-21 18:21:00,34.7,15.6,29.79,WSW,248,0.0,0.0,45,0.00,,---,0.00,VWS V14.01,2013-01-22 02:21:00,
2013-01-21 18:26:00,34.5,15.4,29.79,East,90,0.0,0.0,45,0.00,,---,0.00,VWS V14.01,2013-01-22 02:26:00,
2013-01-21 18:31:00,34.3,15.2,29.79,East,90,0.0,0.0,45,0.00,,---,0.00,VWS V14.01,2013-01-22 02:31:00,
2013-01-21 18:36:00,34.0,15.4,29.79,East,90,0.0,0.0,46,0.00,,---,0.00,VWS V14.01,2013-01-22 02:36:00,
2013-01-21 18:42:00,33.8,15.7,29.79,East,90,0.0,0.0,47,0.00,,---,0.00,VWS V14.01,2013-01-22 02:42:00,
2013-01-21 18:47:00,33.6,16.0,29.79,WSW,248,0.0,0.0,48,0.00,,---,0.00,VWS V14.01,2013-01-22 02:47:00,
2013-01-21 18:52:00,33.6,16.5,29.79,WSW,248,0.0,0.0,49,0.00,,---,0.00,VWS V14.01,2013-01-22 02:52:00,
2013-01-21 18:57:00,33.4,16.4,29.79,WSW,248,0.0,0.0,49,0.00,,---,0.00,VWS V14.01,2013-01-22 02:57:00,
2013-01-21 19:02:00,33.3,16.6,29.79,WSW,248,0.0,0.0,50,0.00,,---,0.00,VWS V14.01,2013-01-22 03:02:00,
2013-01-21 19:07:00,33.1,16.5,29.79,WSW,248,0.0,0.0,50,0.00,,---,0.00,VWS V14.01,2013-01-22 03:07:00,
2013-01-21 19:12:00,32.7,16.1,29.79,WSW,248,0.0,0.0,50,0.00,,---,0.00,VWS V14.01,2013-01-22 03:12:00,
2013-01-21 19:17:00,32.5,16.4,29.79,West,270,0.0,0.0,51,0.00,,---,0.00,VWS V14.01,2013-01-22 03:17:00,
2013-01-21 19:22:00,32.5,16.9,29.79,SSE,158,2.7,2.7,52,0.00,,---,0.00,VWS V14.01,2013-01-22 03:22:00,
2013-01-21 19:27:00,32.9,17.2,29.82,SSE,158,0.0,0.0,52,0.00,,---,0.00,VWS V14.01,2013-01-22 03:27:00,
2013-01-21 19:32:00,32.9,16.8,29.82,SSE,158,0.0,0.0,51,0.00,,---,0.00,VWS V14.01,2013-01-22 03:32:00,
2013-01-21 19:37:00,33.1,17.4,29.82,SSE,158,4.0,4.5,52,0.00,,---,0.00,VWS V14.01,2013-01-22 03:37:00,
2013-01-21 19:42:00,33.4,17.3,29.79,SE,135,3.1,5.4,51,0.00,,---,0.00,VWS V14.01,2013-01-22 03:42:00,
2013-01-21 19:47:00,33.6,17.4,29.79,East,90,8.3,8.3,51,0.00,,---,0.00,VWS V14.01,2013-01-22 03:47:00,
2013-01-21 19:52:00,33.4,17.3,29.79,SE,135,5.4,7.6,51,0.00,,---,0.00,VWS V14.01,2013-01-22 03:52:00,
2013-01-21 19:57:00,33.3,17.1,29.79,WNW,292,3.1,5.8,51,0.00,,---,0.00,VWS V14.01,2013-01-22 03:57:00,
2013-01-21 20:02:00,33.1,17.4,29.79,NNW,338,3.1,7.2,52,0.00,,---,0.00,VWS V14.01,2013-01-22 04:02:00,
2013-01-21 20:07:00,33.1,17.4,29.79,SE,135,3.1,3.1,52,0.00,,---,0.00,VWS V14.01,2013-01-22 04:07:00,
2013-01-21 20:12:00,33.1,17.4,29.79,SE,135,2.2,4.9,52,0.00,,---,0.00,VWS V14.01,2013-01-22 04:12:00,
2013-01-21 20:17:00,32.9,17.2,29.79,WSW,248,0.0,2.7,52,0.00,,---,0.00,VWS V14.01,2013-01-22 04:17:00,
2013-01-21 20:22:00,33.1,17.4,29.79,SE,135,0.0,7.2,52,0.00,,---,0.00,VWS V14.01,2013-01-22 04:22:00,
2013-01-21 20:27:00,32.9,17.2,29.79,SW,225,2.7,2.7,52,0.00,,---,0.00,VWS V14.01,2013-01-22 04:27:00,
2013-01-21 20:33:00,33.1,17.4,29.79,SW,225,3.6,3.6,52,0.00,,---,0.00,VWS V14.01,2013-01-22 04:33:00,
2013-01-21 20:38:00,32.7,17.0,29.79,SW,225,0.0,0.0,52,0.00,,---,0.00,VWS V14.01,2013-01-22 04:38:00,
2013-01-21 20:43:00,32.5,17.3,29.79,SW,225,0.0,2.2,53,0.00,,---,0.00,VWS V14.01,2013-01-22 04:43:00,
2013-01-21 20:48:00,32.2,17.8,29.79,SW,225,0.0,0.0,55,0.00,,---,0.00,VWS V14.01,2013-01-22 04:48:00,
2013-01-21 20:53:00,31.6,17.8,29.82,SW,225,0.0,0.0,56,0.00,,---,0.00,VWS V14.01,2013-01-22 04:53:00,
2013-01-21 20:58:00,31.3,18.2,29.82,SW,225,0.0,0.0,58,0.00,,---,0.00,VWS V14.01,2013-01-22 04:58:00,
2013-01-21 21:00:00,31.1,18.5,29.82,SW,225,0.0,0.0,59,0.00,,---,0.00,VWS V14.01,2013-01-22 05:00:00,
2013-01-21 21:01:00,31.1,18.5,29.82,SW,225,0.0,0.0,59,0.00,,---,0.00,VWS V14.01,2013-01-22 05:01:00,
2013-01-21 21:07:00,30.9,18.7,29.79,SW,225,0.0,0.0,60,0.00,,---,0.00,VWS V14.01,2013-01-22 05:07:00,
2013-01-21 21:12:00,30.7,18.9,29.79,SW,225,0.0,0.0,61,0.00,,---,0.00,VWS V14.01,2013-01-22 05:12:00,
2013-01-21 21:17:00,30.4,19.3,29.79,SW,225,0.0,0.0,63,0.00,,---,0.00,VWS V14.01,2013-01-22 05:17:00,
2013-01-21 21:22:00,30.2,19.9,29.79,SW,225,0.0,0.0,65,0.00,,---,0.00,VWS V14.01,2013-01-22 05:22:00,
2013-01-21 21:27:00,30.0,20.4,29.79,SW,225,0.0,0.0,67,0.00,,---,0.00,VWS V14.01,2013-01-22 05:27:00,
2013-01-21 21:32:00,29.8,20.9,29.79,SW,225,0.0,0.0,69,0.00,,---,0.00,VWS V14.01,2013-01-22 05:32:00,
2013-01-21 21:37:00,29.7,21.1,29.79,SW,225,0.0,0.0,70,0.00,,---,0.00,VWS V14.01,2013-01-22 05:37:00,
2013-01-21 21:42:00,29.8,21.9,29.79,SW,225,0.0,0.0,72,0.00,,---,0.00,VWS V14.01,2013-01-22 05:42:00,
2013-01-21 21:47:00,29.8,21.9,29.79,SW,225,0.0,0.0,72,0.00,,---,0.00,VWS V14.01,2013-01-22 05:47:00,
2013-01-21 21:53:00,29.8,21.9,29.79,WSW,248,0.0,0.0,72,0.00,,---,0.00,VWS V14.01,2013-01-22 05:53:00,
2013-01-21 21:58:00,30.2,22.3,29.79,SW,225,2.7,2.7,72,0.00,,---,0.00,VWS V14.01,2013-01-22 05:58:00,
2013-01-21 22:03:00,31.1,22.5,29.79,East,90,3.1,4.0,70,0.00,,---,0.00,VWS V14.01,2013-01-22 06:03:00,
2013-01-21 22:08:00,31.6,21.6,29.79,SE,135,4.9,4.9,66,0.00,,---,0.00,VWS V14.01,2013-01-22 06:08:00,
2013-01-21 22:13:00,32.4,20.8,29.79,SE,135,7.6,7.6,62,0.00,,---,0.00,VWS V14.01,2013-01-22 06:13:00,
2013-01-21 22:18:00,32.7,19.2,29.79,East,90,2.7,5.8,57,0.00,,---,0.00,VWS V14.01,2013-01-22 06:18:00,
2013-01-21 22:23:00,32.9,18.9,29.79,East,90,4.0,8.1,56,0.00,,---,0.00,VWS V14.01,2013-01-22 06:23:00,
2013-01-21 22:28:00,32.9,18.1,29.79,East,90,7.6,7.6,54,0.00,,---,0.00,VWS V14.01,2013-01-22 06:28:00,
2013-01-21 22:33:00,32.7,17.9,29.79,ESE,112,4.0,4.0,54,0.00,,---,0.00,VWS V14.01,2013-01-22 06:33:00,
2013-01-21 22:38:00,32.7,17.9,29.79,ESE,112,3.1,3.1,54,0.00,,---,0.00,VWS V14.01,2013-01-22 06:38:00,
2013-01-21 22:43:00,32.5,18.2,29.79,SE,135,11.0,11.0,55,0.00,,---,0.00,VWS V14.01,2013-01-22 06:43:00,
2013-01-21 22:48:00,32.5,18.2,29.79,North,0,4.9,4.9,55,0.00,,---,0.00,VWS V14.01,2013-01-22 06:48:00,
2013-01-21 22:53:00,32.4,18.0,29.79,SE,135,3.6,3.6,55,0.00,,---,0.00,VWS V14.01,2013-01-22 06:53:00,
2013-01-21 22:58:00,32.4,18.0,29.79,SE,135,5.4,8.3,55,0.00,,---,0.00,VWS V14.01,2013-01-22 06:58:00,
2013-01-21 23:03:00,32.2,17.8,29.79,WSW,248,2.2,5.4,55,0.00,,---,0.00,VWS V14.01,2013-01-22 07:03:00,
2013-01-21 23:08:00,32.4,18.0,29.79,West,270,0.0,3.6,55,0.00,,---,0.00,VWS V14.01,2013-01-22 07:08:00,
2013-01-21 23:14:00,32.4,18.0,29.79,South,180,6.3,6.3,55,0.00,,---,0.00,VWS V14.01,2013-01-22 07:14:00,
2013-01-21 23:19:00,32.2,17.8,29.79,SE,135,3.6,3.6,55,0.00,,---,0.00,VWS V14.01,2013-01-22 07:19:00,
2013-01-21 23:24:00,32.2,17.8,29.79,East,90,2.7,2.7,55,0.00,,---,0.00,VWS V14.01,2013-01-22 07:24:00,
2013-01-21 23:29:00,32.4,18.0,29.79,SE,135,3.1,3.1,55,0.00,,---,0.00,VWS V14.01,2013-01-22 07:29:00,
2013-01-21 23:34:00,32.4,17.6,29.79,WNW,292,2.7,2.7,54,0.00,,---,0.00,VWS V14.01,2013-01-22 07:34:00,
2013-01-21 23:39:00,32.4,17.6,29.79,East,90,3.6,4.9,54,0.00,,---,0.00,VWS V14.01,2013-01-22 07:39:00,
2013-01-21 23:44:00,32.4,17.6,29.79,SSE,158,0.0,2.7,54,0.00,,---,0.00,VWS V14.01,2013-01-22 07:44:00,
2013-01-21 23:49:00,32.2,17.4,29.79,South,180,0.0,0.0,54,0.00,,---,0.00,VWS V14.01,2013-01-22 07:49:00,
2013-01-21 23:54:00,32.2,17.4,29.79,WNW,292,0.0,3.1,54,0.00,,---,0.00,VWS V14.01,2013-01-22 07:54:00,